Regional Weather Roundup
Issued by NWS

Home | Current Version | Previous Version | Text Only | Print | Product List | Glossary On
Versions: 1 2 3 4 5 6 7 8 9 10 11 12 13 14 15 16 17 18 19 20 21 22 23 24 25 26 27 28 29 30 31 32 33 34 35 36 37 38 39 40 41 42 43 44 45 46 47 48 49 50
000
ASUS44 KOUN 012210
RWROK

WEATHER ROUNDUP FOR OKLAHOMA
NATIONAL WEATHER SERVICE NORMAN OK
500 PM CDT SUN MAY 01 2016

NOTE: "FAIR" INDICATES FEW OR NO CLOUDS BELOW 12,000 FEET WITH NO
      SIGNIFICANT WEATHER AND/OR OBSTRUCTIONS TO VISIBILITY.

OKZ001>007-009>012-014-015-017-012300-
NORTHWEST OKLAHOMA AND THE PANHANDLE

CITY           SKY/WX    TMP DP  RH WIND       PRES   REMARKS
GAGE           LGT RAIN  49  40  71 N17       30.14F
GUYMON         LGT RAIN  45  39  79 N14       30.18F
ENID/WOODRING  PTSUNNY   59  45  58 N16G26    30.06F
$$

OKZ016-021>023-033>039-044-045-012300-
SOUTHWEST OKLAHOMA

CITY           SKY/WX    TMP DP  RH WIND       PRES   REMARKS
LAWTON/REGL    MOSUNNY   63  46  54 N14       30.07R
LAWTON/FT SILL CLOUDY    63  47  55 N15       30.06R
FREDERICK      CLOUDY    63  47  55 N16       30.05R
CLINTON        CLOUDY    55  41  59 N10G24    30.13R
HOBART         LGT RAIN  56  45  66 N16       30.10F
ALTUS AFB      CLOUDY    59  45  58 N15       30.08S
$$

OKZ018>020-024>031-012300-
CENTRAL OKLAHOMA

CITY           SKY/WX    TMP DP  RH WIND       PRES   REMARKS
OKLAHOMA CITY  PTSUNNY   63  45  51 N16       30.05F
OKC/WILEY POST PTSUNNY   60  46  59 N15G25    30.08S
OKC/TINKER AFB MOSUNNY   63  45  51 N17G23    30.04F
STILLWATER     PTSUNNY   60  46  59 N14G22    30.07F
GUTHRIE        PTSUNNY   61  45  55 VRB6G17   30.07F
$$

OKZ008-013-054>072-012300-
NORTHEAST OKLAHOMA

CITY           SKY/WX    TMP DP  RH WIND       PRES   REMARKS
TULSA          MOSUNNY   68  47  46 NW8       30.03R
TULSA/JONES    SUNNY     67  45  45 N8        30.05R
PONCA CITY     CLOUDY    56  45  66 N22       30.06F
BARTLESVILLE   CLOUDY    63  46  54 VRB5      30.08R
MUSKOGEE       SUNNY     68  47  46 N12G23    30.04S
$$

OKZ032-040>043-046>053-073>077-012300-
SOUTH CENTRAL/SOUTHEAST OKLAHOMA

CITY           SKY/WX    TMP DP  RH WIND       PRES   REMARKS
ARDMORE/DWNTWN SUNNY     68  45  42 NE7       30.01F
MCALESTER      MOSUNNY   69  46  43 NE10      30.02F
$$





USA.gov is the U.S. government's official web portal to all federal, state and local government web resources and services.